Back to catalog

ICEYE-X37

AliveScienceSSO
NORAD 59102·PAYLOAD·🇺🇸 United States

Launched Mar 4, 2024 from Vandenberg Space Force Base

Loading…

Next Passes (next 24 hours)

TLE

FreshSource: Space-Track

Epoch: Sep 14, 2026, 15:42 UTC

1 59102U 24043E   26257.65448407  .00002927  00000-0  20101-3 0  9997
2 59102  97.8443  36.1616 0016411  68.7419 291.5558 15.06693200138554

Track ICEYE-X37 in real time with AllMySat

Download on the App Store